TimeEST,TemperatureF,Dew PointF,Humidity,Sea Level PressureIn,VisibilityMPH,Wind Direction,Wind SpeedMPH,Gust SpeedMPH,PrecipitationIn,Events,Conditions,WindDirDegrees,DateUTC
12:51 AM,28.0,25.0,88,30.42,9.0,Calm,Calm,-,N/A,,Clear,0,2012-12-13 05:51:00
1:51 AM,28.0,25.0,88,30.43,9.0,Calm,Calm,-,N/A,,Clear,0,2012-12-13 06:51:00
2:51 AM,27.0,24.1,89,30.44,8.0,Calm,Calm,-,N/A,,Clear,0,2012-12-13 07:51:00
3:51 AM,27.0,25.0,92,30.44,7.0,Calm,Calm,-,N/A,,Clear,0,2012-12-13 08:51:00
4:51 AM,26.1,24.1,92,30.44,6.0,Calm,Calm,-,N/A,,Clear,0,2012-12-13 09:51:00
5:51 AM,25.0,24.1,96,30.45,7.0,Calm,Calm,-,N/A,,Clear,0,2012-12-13 10:51:00
6:51 AM,24.8,21.2,86,30.46,6.0,Calm,Calm,-,N/A,,Clear,0,2012-12-13 11:51:00
7:51 AM,24.1,21.9,91,30.48,5.0,NNW,4.6,-,N/A,,Clear,330,2012-12-13 12:51:00
8:51 AM,30.0,27.0,88,30.48,7.0,Calm,Calm,-,N/A,,Clear,0,2012-12-13 13:51:00
9:51 AM,34.0,28.0,79,30.48,9.0,Calm,Calm,-,N/A,,Clear,0,2012-12-13 14:51:00
10:51 AM,39.9,27.0,60,30.48,10.0,Calm,Calm,-,N/A,,Clear,0,2012-12-13 15:51:00
11:51 AM,43.0,28.0,56,30.45,10.0,Calm,Calm,-,N/A,,Clear,0,2012-12-13 16:51:00
12:51 PM,44.1,23.0,43,30.43,10.0,Calm,Calm,-,N/A,,Clear,0,2012-12-13 17:51:00
1:51 PM,44.1,24.1,45,30.41,10.0,Calm,Calm,-,N/A,,Clear,0,2012-12-13 18:51:00
2:51 PM,46.0,24.1,42,30.39,10.0,Calm,Calm,-,N/A,,Clear,0,2012-12-13 19:51:00
3:51 PM,44.1,25.0,47,30.38,10.0,Calm,Calm,-,N/A,,Clear,0,2012-12-13 20:51:00
4:51 PM,37.9,23.0,55,30.39,10.0,Calm,Calm,-,N/A,,Clear,0,2012-12-13 21:51:00
7:51 PM,30.9,23.0,72,30.38,10.0,Calm,Calm,-,N/A,,Clear,0,2012-12-14 00:51:00
8:51 PM,28.9,24.1,82,30.36,10.0,Calm,Calm,-,N/A,,Clear,0,2012-12-14 01:51:00
9:51 PM,28.9,24.1,82,30.35,10.0,Calm,Calm,-,N/A,,Clear,0,2012-12-14 02:51:00
10:51 PM,28.9,24.1,82,30.35,9.0,Calm,Calm,-,N/A,,Clear,0,2012-12-14 03:51:00
11:51 PM,26.6,23.0,86,30.33,9.0,Calm,Calm,-,N/A,,Clear,0,2012-12-14 04:51:00